CYGFM03

Last updated on Sun Jun 21 2026 00:02:47 GMT+0000 (Coordinated Universal Time)

1 41891U 16078H 26171.44907869 .00021797 00000+0 25786-3 0 9995 2 41891 34.9390 209.7861 0006918 211.7965 148.2343 15.60252937529484
UTC large
Height (km)
Speed (km/s)
/
Latitude / Longitude
Inclination (degrees)
Orbital Period (minutes)
Azimuth
Elevation
Range (km)
Doppler Factor

Next 0 passes for location: London (51.5072 / 0.1276)

No passes found over London.
CYGFM03